Lexington Weather

Lexington, Massachusetts, USA

23°F
1/21/2021 9:11am 
  • Lexington Conditions: Clear
  • Temperature: 22.6°F / -5.2°CWarmer 1.2°F than last hour.
  • Dew Point: 12.0°FIncreased 0.2°Fsince last hour.
  • Relative Humidity: 63%Decreased 3.0% since last hour.
  • Wind: Wind from SSW SSW 3 mph, 10-min avg: 1 mph, gust: 7 mph
  • Barometer: 29.78 inFalling 0.02  inHg/hr Falling Slowly
  • Visibility: 10 miles
  • Snow Today: Trace
  •   

Regional Weather Roundup
for Boston / Norton, MA

        
000
ASUS41 KBOX 191505
RWRBOX

REGIONAL WEATHER ROUNDUP
NATIONAL WEATHER SERVICE BOSTON/NORTON MA
1000 AM EST TUE JAN 19 2021

NOTE:  "FAIR" INDICATES FEW OR NO CLOUDS BELOW 12,000 FEET WITH NO 
SIGNIFICANT WEATHER AND/OR OBSTRUCTIONS TO VISIBILITY.

MAZALL-191600-
EASTERN MASSACHUSETTS
  
CITY           SKY/WX    TMP DP  RH WIND       PRES   REMARKS
BOSTON         PTSUNNY   32  14  47 W12       30.01R WCI  23          
BEVERLY        PTSUNNY   30  12  47 W13       29.99R WCI  20          
LAWRENCE       CLOUDY    29  13  51 W9        30.02R WCI  20          
BEDFORD        PTSUNNY   31  15  52 NW8       30.00R WCI  23          
BLUE HILL        N/A     30  18  60 W10G18    29.96R WCI  21          
NORWOOD        MOSUNNY   35  19  52 W8        30.01R WCI  29          
MARSHFIELD     PTSUNNY   36  19  51 W8G16     30.00S WCI  29          
PLYMOUTH       SUNNY     34  20  56 W12       30.00R WCI  25          
TAUNTON        SUNNY     36  21  54 W8        30.01R WCI  30          
NEW BEDFORD    SUNNY     38  23  55 W14G20    30.01R WCI  30          
$$

MAZALL-191600-
CAPE COD AND THE ISLANDS
  
CITY           SKY/WX    TMP DP  RH WIND       PRES   REMARKS
FALMOUTH       NOT AVBL                                               
HYANNIS        SUNNY     36  19  50 NW12      29.99R WCI  28          
CHATHAM        SUNNY     35  18  49 NW12G20   30.01R WCI  27          
PROVINCETOWN   SUNNY     34  18  52 NW17G24   30.01R WCI  23          
NANTUCKET      SUNNY     37  24  59 NW18G24   30.02R WCI  27          
MARTHAS VNYRD  SUNNY     38  25  59 W15G21    30.02R WCI  29          
$$
 
MAZALL-191600-
CENTRAL AND WESTERN MASSACHUSETTS
  
CITY           SKY/WX    TMP DP  RH WIND       PRES   REMARKS
WORCESTER      MOSUNNY   32  20  61 W14       29.95R WCI  22          
FITCHBURG      PTSUNNY   32  18  56 NW10      29.99R WCI  24          
ORANGE         SUNNY     32  19  58 VRB3      30.00R                  
SPRINGFIELD    MOSUNNY   34  22  61 CALM      30.00S                  
WESTFIELD      SUNNY     35  24  64 VRB3      30.00S                  
NORTH ADAMS    CLOUDY    29  21  72 W3        30.00R                  
PITTSFIELD     CLOUDY    29  23  78 SW5       29.96R WCI  24          
$$
 
RIZALL-191600-
RHODE ISLAND
  
CITY           SKY/WX    TMP DP  RH WIND       PRES   REMARKS
PROVIDENCE     MOSUNNY   37  24  59 W12       30.02S WCI  29          
NEWPORT        MOSUNNY   36  24  62 NW8       30.02R WCI  30          
BLOCK ISLAND   CLOUDY    38  27  64 NW12G22   30.04S WCI  30          
SMITHFIELD     SUNNY     35  23  61 NW14G21   30.00R WCI  26          
WESTERLY       CLOUDY    35  24  64 VRB6      30.04R WCI  30          
$$
 
CTZALL-191600-
CONNECTICUT
  
CITY           SKY/WX    TMP DP  RH WIND       PRES   REMARKS
BRADLEY INTL   MOSUNNY   34  23  64 S6        30.02R WCI  29          
HARTFORD       PTSUNNY   35  25  66 S5        30.04S WCI  31          
BRIDGEPORT     CLOUDY    38  26  62 SW7       30.05S                  
DANBURY        CLOUDY    35  25  66 SW9       30.03S WCI  28          
GROTON         CLOUDY    36  26  67 W10       30.04R WCI  28          
NEW HAVEN      CLOUDY    38  28  67 W6        30.04S                  
CHESTER        FAIR      34  27  75 VRB6      30.03S WCI  29          
MERIDEN        CLOUDY    32  25  75 S6        30.04S WCI  26          
WILLIMANTIC    SUNNY     35  23  61 VRB5      30.03R WCI  31          
OXFORD         PTSUNNY   33  28  81 W5        30.01S WCI  29          
$$

MEZ002-015-021-024-NHZ003-005-008-011-012-014-VTZ005-008-191600-
NORTHERN NEW ENGLAND
  
CITY           SKY/WX    TMP DP  RH WIND       PRES   REMARKS
PORTLAND ME    MOSUNNY   28  13  53 NW5       29.97R WCI  23          
BANGOR ME      SUNNY     22  -1  36 NW10      29.93R WCI  11          
CONCORD NH     PTSUNNY   26  13  57 NW7       29.99S WCI  18          
MANCHESTER NH  PTSUNNY   30  13  49 NW5       29.98R WCI  25          
NASHUA NH      CLOUDY    30  15  53 W3        30.00S                  
PORTSMOUTH NH  PTSUNNY   29   8  41 W7        29.97R WCI  21          
JAFFREY NH     MOSUNNY   26  10  50 VRB6      29.95S WCI  19          
KEENE NH       MIX PCPN  29  15  56 CALM      30.00R                  
BURLINGTON VT  PTSUNNY   20  13  74 CALM      30.01S                  
MT. WASHINGTON NOT AVBL                                               
$$

NYZ052-076-191600-
EASTERN NEW YORK
  
CITY           SKY/WX    TMP DP  RH WIND       PRES   REMARKS
ALBANY         CLOUDY    27  22  81 SE5       30.02R WCI  22          
NEW YORK CITY  MOSUNNY   40  20  44 W16G24    30.06S WCI  31          
$$
 
ANZALL-191600-
MARINE OBSERVATIONS
  
STATION/POSITION TIME  TEMP    WIND        PRES    VSBY  WAVE
                       AIR SEA DIR/SP/G                  HT/PER
                 (UTC) (F)     (DEG/KT/KT) (MB)    (MI)  (FT/S)
BOSTON BUOY      1440   32 43  290/ 17/ 21 1016.6R
BUZZARDS BAY     1400          300/ 16/ 19 1017.6R
NANTUCKET SOUND  1440      40  290/ 16/ 21   N/A
MASS BAY-STELLWA 1404   31     290/ 19/ 21 1014.3R  1 3/4  3/ 4
ISLE OF SHOALS   1400   25     300/ 16/ 19 1014.5R
S OF BLOCK IS    1426      49                N/A           5/ 8
$$

......................KEY.........................
  SKY/WX - SKY CONDITION/PRESENT WEATHER
  TMP    - TEMPERATURE IN FAHRENHEIT
  DWPT   - DEWPOINT IN FAHRENHEIT
  RH     - RELATIVE HUMIDITY IN PERCENT
  WIND   - DIRECTION AND SPEED IN MPH
  PRES   - MEAN SEA LEVEL PRESSURE IN INCHES OF HG
  WCI    - WIND CHILL INDEX
  VSB    - VISIBILITY IN MILES
  HX     - HEAT INDEX
  TC     - TEMPERATURE IN CELSIUS
  VRB    - VARIABLE WIND DIRECTION
  N/A    - NOT AVAILABLE
  
      

Other recent Regional Weather Roundups

Thu Jan 21, 9:04am

Thu Jan 21, 7:04am

Thu Jan 21, 6:04am

Thu Jan 21, 5:04am

Thu Jan 21, 4:04am

Thu Jan 21, 3:04am

Thu Jan 21, 2:04am

Thu Jan 21, 1:04am

Thu Jan 21, 12:04am

Wed Jan 20, 11:04pm

Wed Jan 20, 10:05pm

Wed Jan 20, 9:04pm

Wed Jan 20, 8:04pm

Wed Jan 20, 7:04pm

Wed Jan 20, 6:05pm

Wed Jan 20, 5:05pm

Wed Jan 20, 1:04pm

Wed Jan 20, 12:04pm

Wed Jan 20, 11:04am

Wed Jan 20, 10:04am

Wed Jan 20, 9:05am

Wed Jan 20, 8:04am

Wed Jan 20, 7:04am

Wed Jan 20, 6:04am

Wed Jan 20, 5:04am

Wed Jan 20, 4:04am

Wed Jan 20, 3:05am

Wed Jan 20, 2:04am

Wed Jan 20, 1:04am

Wed Jan 20, 12:04am

Tue Jan 19, 11:04pm

Tue Jan 19, 10:04pm

Tue Jan 19, 9:04pm

Tue Jan 19, 8:04pm

Tue Jan 19, 7:04pm

Tue Jan 19, 6:05pm

Tue Jan 19, 5:04pm

Tue Jan 19, 4:05pm

Tue Jan 19, 3:04pm

Tue Jan 19, 2:04pm

Tue Jan 19, 1:04pm

Tue Jan 19, 12:05pm

Tue Jan 19, 11:04am

Tue Jan 19, 9:04am

Tue Jan 19, 8:04am

Tue Jan 19, 7:04am

Tue Jan 19, 6:04am

Tue Jan 19, 5:04am

Tue Jan 19, 4:04am

Tue Jan 19, 3:04am

Tue Jan 19, 2:04am

Tue Jan 19, 1:04am

Tue Jan 19, 12:04am

Mon Jan 18, 11:04pm

Mon Jan 18, 10:04pm

Mon Jan 18, 9:04pm

Mon Jan 18, 8:05pm

Mon Jan 18, 7:04pm

Mon Jan 18, 6:05pm

Mon Jan 18, 5:04pm

Mon Jan 18, 4:04pm

Mon Jan 18, 3:04pm

Mon Jan 18, 2:04pm

Mon Jan 18, 1:04pm

Mon Jan 18, 12:04pm

Mon Jan 18, 11:04am

Mon Jan 18, 10:04am

Mon Jan 18, 9:04am

Mon Jan 18, 8:04am

Mon Jan 18, 7:04am

Mon Jan 18, 6:04am

Mon Jan 18, 5:04am

Mon Jan 18, 4:04am

Mon Jan 18, 3:04am

Mon Jan 18, 2:04am

Mon Jan 18, 1:04am

Mon Jan 18, 12:04am

Sun Jan 17, 11:04pm

Sun Jan 17, 10:04pm

Sun Jan 17, 9:04pm

Sun Jan 17, 8:04pm

Sun Jan 17, 7:04pm

Sun Jan 17, 6:04pm

Sun Jan 17, 5:04pm

Sun Jan 17, 4:05pm

Sun Jan 17, 3:04pm

Sun Jan 17, 2:04pm

Sun Jan 17, 1:04pm

Sun Jan 17, 12:04pm

Sun Jan 17, 11:04am

Sun Jan 17, 10:04am

Sun Jan 17, 9:04am

Sun Jan 17, 8:04am

Sun Jan 17, 7:04am

Sun Jan 17, 6:04am

Sun Jan 17, 5:04am

Sun Jan 17, 4:04am

Sun Jan 17, 3:04am

Sun Jan 17, 2:04am

Sun Jan 17, 1:04am

Sun Jan 17, 12:04am

Sat Jan 16, 11:05pm

Sat Jan 16, 10:04pm

Sat Jan 16, 9:04pm

Sat Jan 16, 8:05pm

Sat Jan 16, 7:04pm

Sat Jan 16, 6:04pm

Sat Jan 16, 5:05pm

Sat Jan 16, 4:05pm

Sat Jan 16, 3:05pm

Sat Jan 16, 2:04pm

Sat Jan 16, 1:04pm

Sat Jan 16, 12:04pm

Sat Jan 16, 11:04am

Sat Jan 16, 10:05am

Sat Jan 16, 9:04am

Sat Jan 16, 8:04am

Sat Jan 16, 7:04am

Sat Jan 16, 6:04am

Sat Jan 16, 5:04am

Sat Jan 16, 4:04am

Sat Jan 16, 3:05am

Sat Jan 16, 2:04am

Sat Jan 16, 1:04am

Sat Jan 16, 12:05am

Fri Jan 15, 11:05pm

Fri Jan 15, 10:04pm

Fri Jan 15, 9:04pm

Fri Jan 15, 8:04pm

Fri Jan 15, 7:05pm

Fri Jan 15, 6:05pm

Fri Jan 15, 5:05pm

Fri Jan 15, 4:05pm

Fri Jan 15, 3:04pm

Fri Jan 15, 2:05pm

Fri Jan 15, 1:04pm

Fri Jan 15, 12:05pm

Fri Jan 15, 11:04am

Fri Jan 15, 10:04am

Fri Jan 15, 9:05am

Fri Jan 15, 8:04am

Fri Jan 15, 7:04am

Fri Jan 15, 6:04am

Fri Jan 15, 5:05am

Fri Jan 15, 4:04am

Fri Jan 15, 3:04am

Fri Jan 15, 2:04am

Fri Jan 15, 1:04am

Fri Jan 15, 12:05am

Thu Jan 14, 11:04pm

Thu Jan 14, 10:04pm

Thu Jan 14, 9:04pm

Thu Jan 14, 8:05pm

Thu Jan 14, 7:04pm

Thu Jan 14, 6:04pm

Thu Jan 14, 5:04pm

Thu Jan 14, 4:05pm

Thu Jan 14, 3:04pm

Thu Jan 14, 2:04pm

Thu Jan 14, 1:04pm

Thu Jan 14, 12:05pm

Thu Jan 14, 11:05am

Thu Jan 14, 10:04am

Thu Jan 14, 9:04am

Thu Jan 14, 8:04am

Thu Jan 14, 7:04am

Thu Jan 14, 6:04am

Thu Jan 14, 5:04am

Thu Jan 14, 4:04am

Thu Jan 14, 3:04am

Thu Jan 14, 2:04am

Thu Jan 14, 1:04am

Thu Jan 14, 12:04am

Wed Jan 13, 11:04pm

Wed Jan 13, 10:04pm

Wed Jan 13, 9:04pm

Wed Jan 13, 8:05pm

Wed Jan 13, 7:04pm

Wed Jan 13, 6:04pm

Wed Jan 13, 5:04pm

Wed Jan 13, 4:04pm

Wed Jan 13, 3:05pm

Wed Jan 13, 2:04pm

Wed Jan 13, 1:04pm

Wed Jan 13, 12:04pm

Wed Jan 13, 11:04am

Wed Jan 13, 10:04am

Wed Jan 13, 9:05am

Wed Jan 13, 8:04am

Wed Jan 13, 7:04am

Wed Jan 13, 6:04am

Wed Jan 13, 5:04am

Wed Jan 13, 4:04am

Wed Jan 13, 3:04am

Wed Jan 13, 2:04am

Wed Jan 13, 1:04am

Wed Jan 13, 12:05am

Tue Jan 12, 11:04pm

Tue Jan 12, 10:04pm

Tue Jan 12, 9:04pm

Tue Jan 12, 8:05pm

Tue Jan 12, 7:04pm

Meta data:

ID: f111924c-bc4e-439f-9ea0-fb2b9a1bbcb4
Link: https://api.weather.gov/products/f111924c-bc4e-439f-9ea0-fb2b9a1bbcb4